Regional Weather Roundup
Issued by NWS Little Rock, AR

Home | Current Version | Previous Version | Text Only | Print | Product List | Glossary Off
Versions: 1 2 3 4 5 6 7 8 9 10 11 12 13 14 15 16 17 18 19 20 21 22 23 24 25 26 27 28 29 30 31 32 33 34 35 36

000
ASUS44 KLZK 230705
RWRLZK

WEATHER ROUNDUP FOR ARKANSAS
NATIONAL WEATHER SERVICE LITTLE ROCK AR
200 AM CDT THU OCT 23 2014

NOTE: "FAIR" INDICATES FEW OR NO CLOUDS BELOW 12,000 FEET WITH NO
SIGNIFICANT WEATHER AND/OR OBSTRUCTIONS TO VISIBILITY.

ARZ001-003-010-029-230800-
NORTHWEST ARKANSAS

CITY           SKY/WX    TMP DP  RH WIND       PRES   REMARKS
FAYETTEVILLE   CLOUDY    50  49  96 CALM      30.16S
FORT SMITH     CLOUDY    57  52  83 E7        30.15S
HARRISON       PTCLDY    48  47  96 SE5       30.18F
BENTONVILLE    CLOUDY    55  48  76 CALM      30.16S
ROGERS         CLOUDY    55  50  83 SE3       30.17R
SILOAM SPGS    CLOUDY    57  46  67 E5        30.16S
HIGHFILL       CLOUDY    57  50  77 SE3       30.16R
$$

ARZ004-005-016-230800-
NORTH CENTRAL ARKANSAS

CITY           SKY/WX    TMP DP  RH WIND       PRES   REMARKS
BATESVILLE     CLEAR     45  41  87 CALM      30.20S
FLIPPIN          N/A     45  39  81 CALM      30.19F VSB 3/4
MTN HOME       CLEAR     48  42  80 E3        30.18F
$$

ARZ040-041-230800-
WEST CENTRAL ARKANSAS

CITY           SKY/WX    TMP DP  RH WIND       PRES   REMARKS
MENA           CLOUDY    52  50  93 CALM      30.17S
MOUNT IDA      MOCLDY    49  47  93 CALM      30.15F FOG
$$

ARZ009-017-025-026-028-230800-
NORTHEAST ARKANSAS

CITY           SKY/WX    TMP DP  RH WIND       PRES   REMARKS
CORNING        FAIR      45  41  87 NE5       30.21S
JONESBORO      CLEAR     47  43  86 NE3       30.20F
NEWPORT        CLEAR     44  43  97 NE5       30.20F
WALNUT RIDGE   CLEAR     45  36  70 N5        30.21S
BLYTHEVILLE    CLEAR     45  42  89 NE5       30.20F
$$

ARZ022-023-033-042-044-230800-
CENTRAL ARKANSAS

CITY           SKY/WX    TMP DP  RH WIND       PRES   REMARKS
LITTLE ROCK    PTCLDY    51  44  77 CALM      30.18F
N LITTLE ROCK    N/A     52  45  76 NE5       30.18F
JACKSONVILLE   CLEAR     43  40  87 CALM      30.18F
SEARCY         CLEAR     44  41  89 N3        30.20F
HOT SPRINGS    PTCLDY    48  45  89 E3        30.18S
RUSSELLVILLE   PTCLDY    48  46  93 CALM      30.18S
$$

ARZ036-230800-
EAST ARKANSAS

CITY           SKY/WX    TMP DP  RH WIND       PRES   REMARKS
WEST MEMPHIS   CLEAR     45  45 100 CALM      30.18F
$$

ARZ050-053-066-070-073-230800-
SOUTHWEST ARKANSAS

CITY           SKY/WX    TMP DP  RH WIND       PRES   REMARKS
ARKADELPHIA    FAIR      51  51 100 CALM      30.18S
CAMDEN         PTCLDY    45  43  93 CALM      30.17S FOG
TEXARKANA      CLOUDY    55  52  89 E3        30.15S
EL DORADO      MOCLDY    51  48  89 N3        30.16R
DE QUEEN       CLOUDY    56  52  86 E6        30.13F
$$

ARZ056-057-069-230800-
SOUTHEAST ARKANSAS

CITY           SKY/WX    TMP DP  RH WIND       PRES   REMARKS
PINE BLUFF     CLEAR     50  44  80 CALM      30.17F
STUTTGART      CLEAR     46  43  87 NE6       30.18F
MONTICELLO     CLEAR     49  45  86 CALM      30.15F

$$





USA.gov is the U.S. government's official web portal to all federal, state and local government web resources and services.